sat.trackr.live / text

‹ back to catalog

YAOGAN-30 10A

NORAD 48860 · 2021-055A

PAYLOAD ACTIVE UNKNOWN

§ Identity

Operator
Country
PRC
Launch date
2021-06-18
Launch site
XICLF
Launch vehicle
Mass (kg)
RCS (m²)

External: N2YO · Heavens-Above · Gunter

§ Orbital elements

Epoch: 2026-05-24T21:09:33.836832Z

Period
95.84 min
Inclination
34.9959°
Eccentricity
0.0004154
Mean motion
15.02552587 rev/d
Perigee alt
556.1 km
Apogee alt
561.9 km
Semi-major
6,937.2 km
B*
1.8981e-4
RAAN
294.2706°
Arg perigee
238.1729°
Mean anomaly
121.8575°
Rev number
26,967

§ Raw data

YAOGAN-30 10A1 48860U 21055A   26144.88164163  .00002547  00000+0  18981-3 0  99902 48860  34.9959 294.2706 0004154 238.1729 121.8575 15.02552587269672

JSON: /api/v1/satellites/48860 · /tle

For live sub-satellite position, see the globe view (requires WebGL).

§ Visibility from observer

Set your observer location to see the next 7 days of passes ≥ 10°. The values pass through the URL so the page stays shareable.

No JS? Fill the form by hand. The geolocation button needs JavaScript.